| time (UTC) | temp F | wind direction | speed MPH | gust MPH | rain 1hr in | rain 24hr in | rain mn in | humidity % | barometer mb |
| 20260901201018 | 48 | 240 | 1.0 | 4.0 | 0.00 | 0.00 | 0.00 | 74 | 1007.7 |
| 20260901200517 | 48 | 210 | 1.0 | 4.0 | 0.00 | 0.00 | 0.00 | 75 | 1007.7 |
| 20260901200038 | 48 | 0 | 1.0 | 2.0 | 0.00 | 0.00 | 0.00 | 75 | 1007.9 |
| 20260901195521 | 47 | 135 | 0.0 | 3.0 | 0.00 | 0.00 | 0.00 | 79 | 1007.7 |
| 20260901195019 | 47 | 0 | 1.0 | 3.0 | 0.00 | 0.00 | 0.00 | 78 | 1007.7 |
| 20260901194534 | 47 | 154 | 1.0 | 3.0 | 0.00 | 0.00 | 0.00 | 80 | 1007.6 |
| 20260901194019 | 46 | 245 | 0.0 | 2.0 | 0.00 | 0.00 | 0.00 | 80 | 1007.7 |
| 20260901193520 | 46 | 261 | 0.0 | 4.0 | 0.00 | 0.00 | 0.00 | 81 | 1007.7 |
| 20260901193036 | 46 | 253 | 0.0 | 4.0 | 0.00 | 0.00 | 0.00 | 82 | 1007.7 |
| 20260901192515 | 46 | 229 | 0.0 | 4.0 | 0.00 | 0.00 | 0.00 | 84 | 1007.8 |
| 20260901192023 | 45 | 173 | 1.0 | 3.0 | 0.00 | 0.00 | 0.00 | 83 | 1007.8 |
| 20260901191537 | 45 | 0 | 0.0 | 0.0 | 0.00 | 0.00 | 0.00 | 86 | 1007.8 |
| 20260901191023 | 45 | 0 | 0.0 | 2.0 | 0.00 | 0.00 | 0.00 | 85 | 1007.7 |
| 20260901190520 | 44 | 0 | 0.0 | 2.0 | 0.00 | 0.00 | 0.00 | 87 | 1007.8 |
| 20260901190033 | 44 | 0 | 0.0 | 2.0 | 0.00 | 0.00 | 0.00 | 87 | 1007.7 |
| 20260901185519 | 44 | 160 | 1.0 | 2.0 | 0.00 | 0.04 | 0.00 | 88 | 1007.8 |
| 20260901185019 | 43 | 0 | 0.0 | 2.0 | 0.00 | 0.04 | 0.00 | 88 | 1007.9 |
| 20260901184542 | 43 | 154 | 0.0 | 1.0 | 0.00 | 0.04 | 0.00 | 90 | 1007.8 |
| 20260901184018 | 42 | 0 | 0.0 | 1.0 | 0.00 | 0.04 | 0.00 | 91 | 1007.9 |
| 20260901183517 | 42 | 0 | 0.0 | 1.0 | 0.00 | 0.04 | 0.00 | 92 | 1007.8 |
| 20260901183036 | 41 | 0 | 0.0 | 1.0 | 0.00 | 0.04 | 0.00 | 93 | 1007.8 |
| 20260901182520 | 41 | 0 | 0.0 | 0.0 | 0.00 | 0.04 | 0.00 | 96 | 1008.0 |
| 20260901182021 | 40 | 0 | 0.0 | 0.0 | 0.00 | 0.04 | 0.00 | 96 | 1007.9 |
| 20260901181535 | 40 | 0 | 0.0 | 0.0 | 0.00 | 0.04 | 0.00 | 96 | 1008.0 |
| 20260901181019 | 40 | 0 | 0.0 | 0.0 | 0.00 | 0.04 | 0.00 | 96 | 1007.9 |
| 20260901180519 | 39 | 0 | 0.0 | 0.0 | 0.00 | 0.04 | 0.00 | 96 | 1007.9 |
| 20260901180038 | 39 | 0 | 0.0 | 2.0 | 0.00 | 0.04 | 0.00 | 96 | 1007.9 |
| 20260901175518 | 39 | 0 | 0.0 | 2.0 | 0.00 | 0.04 | 0.00 | 96 | 1008.1 |
| 20260901175018 | 39 | 0 | 0.0 | 3.0 | 0.00 | 0.04 | 0.00 | 96 | 1008.1 |
| 20260901174534 | 38 | 0 | 0.0 | 4.0 | 0.00 | 0.04 | 0.00 | 97 | 1008.0 |
| 20260901174018 | 38 | 212 | 1.0 | 4.0 | 0.00 | 0.04 | 0.00 | 96 | 1008.1 |
| 20260901173520 | 37 | 0 | 0.0 | 0.0 | 0.00 | 0.04 | 0.00 | 96 | 1008.0 |
| 20260901173033 | 36 | 0 | 0.0 | 0.0 | 0.00 | 0.04 | 0.00 | 96 | 1008.0 |
| 20260901172524 | 35 | 0 | 0.0 | 0.0 | 0.00 | 0.04 | 0.00 | 96 | 1008.1 |
| 20260901172021 | 35 | 0 | 0.0 | 0.0 | 0.00 | 0.04 | 0.00 | 96 | 1008.1 |
| 20260901171539 | 34 | 0 | 0.0 | 0.0 | 0.00 | 0.04 | 0.00 | 96 | 1008.0 |
| 20260901171018 | 34 | 0 | 0.0 | 0.0 | 0.00 | 0.04 | 0.00 | 96 | 1008.1 |
| 20260901170518 | 33 | 0 | 0.0 | 0.0 | 0.00 | 0.04 | 0.00 | 96 | 1008.0 |
| 20260901170038 | 33 | 0 | 0.0 | 0.0 | 0.00 | 0.04 | 0.00 | 96 | 1007.9 |
| 20260901165516 | 32 | 0 | 0.0 | 0.0 | 0.00 | 0.05 | 0.00 | 96 | 1007.9 |
| 20260901165019 | 32 | 0 | 0.0 | 0.0 | 0.00 | 0.05 | 0.00 | 96 | 1008.0 |
| 20260901164534 | 32 | 0 | 0.0 | 0.0 | 0.00 | 0.05 | 0.00 | 96 | 1008.1 |
| 20260901164023 | 32 | 0 | 0.0 | 0.0 | 0.00 | 0.05 | 0.00 | 96 | 1008.0 |
| 20260901163520 | 32 | 0 | 0.0 | 0.0 | 0.00 | 0.05 | 0.00 | 96 | 1007.9 |
| 20260901163034 | 31 | 0 | 0.0 | 0.0 | 0.00 | 0.05 | 0.00 | 96 | 1007.9 |
| 20260901162517 | 31 | 0 | 0.0 | 0.0 | 0.00 | 0.05 | 0.00 | 96 | 1008.0 |
| 20260901162018 | 31 | 0 | 0.0 | 0.0 | 0.00 | 0.05 | 0.00 | 96 | 1007.9 |
| 20260901161539 | 31 | 0 | 0.0 | 0.0 | 0.00 | 0.05 | 0.00 | 96 | 1007.9 |
| 20260901161017 | 31 | 0 | 0.0 | 0.0 | 0.00 | 0.05 | 0.00 | 96 | 1007.8 |
| 20260901160520 | 30 | 0 | 0.0 | 0.0 | 0.00 | 0.05 | 0.00 | 96 | 1007.7 |
| 20260901160038 | 30 | 0 | 0.0 | 0.0 | 0.00 | 0.05 | 0.00 | 96 | 1007.8 |
| 20260901155519 | 30 | 0 | 0.0 | 0.0 | 0.00 | 0.18 | 0.00 | 96 | 1007.7 |
| 20260901155017 | 30 | 0 | 0.0 | 0.0 | 0.00 | 0.18 | 0.00 | 96 | 1007.7 |
| 20260901154537 | 30 | 0 | 0.0 | 0.0 | 0.00 | 0.18 | 0.00 | 96 | 1007.6 |
| 20260901154017 | 30 | 0 | 0.0 | 0.0 | 0.00 | 0.18 | 0.00 | 95 | 1007.6 |
| 20260901153518 | 30 | 0 | 0.0 | 0.0 | 0.00 | 0.18 | 0.00 | 95 | 1007.7 |
| 20260901153033 | 30 | 0 | 0.0 | 0.0 | 0.00 | 0.18 | 0.00 | 95 | 1007.6 |
| 20260901152520 | 30 | 0 | 0.0 | 0.0 | 0.00 | 0.18 | 0.00 | 96 | 1007.5 |
| 20260901152021 | 30 | 0 | 0.0 | 0.0 | 0.00 | 0.18 | 0.00 | 96 | 1007.5 |
| 20260901151534 | 30 | 0 | 0.0 | 0.0 | 0.00 | 0.18 | 0.00 | 96 | 1007.5 |
| 20260901151023 | 30 | 0 | 0.0 | 0.0 | 0.00 | 0.18 | 0.00 | 96 | 1007.6 |
| 20260901150520 | 30 | 0 | 0.0 | 0.0 | 0.00 | 0.18 | 0.00 | 96 | 1007.5 |
| 20260901150035 | 30 | 0 | 0.0 | 0.0 | 0.00 | 0.18 | 0.00 | 95 | 1007.4 |
| 20260901145517 | 30 | 0 | 0.0 | 0.0 | 0.00 | 0.23 | 0.00 | 95 | 1007.4 |
| 20260901145019 | 30 | 0 | 0.0 | 0.0 | 0.00 | 0.23 | 0.00 | 95 | 1007.4 |
| 20260901144535 | 30 | 0 | 0.0 | 0.0 | 0.00 | 0.23 | 0.00 | 95 | 1007.5 |
| 20260901144017 | 30 | 0 | 0.0 | 0.0 | 0.00 | 0.23 | 0.00 | 95 | 1007.3 |
| 20260901143516 | 30 | 0 | 0.0 | 0.0 | 0.00 | 0.23 | 0.00 | 95 | 1007.4 |
| 20260901143034 | 30 | 0 | 0.0 | 0.0 | 0.00 | 0.23 | 0.00 | 95 | 1007.2 |
| 20260901142519 | 30 | 0 | 0.0 | 0.0 | 0.00 | 0.23 | 0.00 | 95 | 1007.3 |
| 20260901142018 | 30 | 0 | 0.0 | 0.0 | 0.00 | 0.23 | 0.00 | 95 | 1007.1 |
| 20260901141538 | 30 | 0 | 0.0 | 0.0 | 0.00 | 0.23 | 0.00 | 95 | 1007.3 |
| 20260901141017 | 30 | 0 | 0.0 | 0.0 | 0.00 | 0.23 | 0.00 | 95 | 1007.2 |
| 20260901140519 | 30 | 0 | 0.0 | 0.0 | 0.00 | 0.23 | 0.00 | 95 | 1007.2 |
| 20260901140032 | 30 | 0 | 0.0 | 0.0 | 0.00 | 0.23 | 0.00 | 95 | 1007.1 |
| 20260901135518 | 30 | 0 | 0.0 | 0.0 | 0.00 | 0.35 | 0.00 | 95 | 1007.0 |
| 20260901135019 | 30 | 0 | 0.0 | 0.0 | 0.00 | 0.35 | 0.00 | 95 | 1007.1 |
| 20260901134532 | 30 | 0 | 0.0 | 0.0 | 0.00 | 0.35 | 0.00 | 95 | 1007.1 |
| 20260901134022 | 30 | 0 | 0.0 | 0.0 | 0.00 | 0.35 | 0.00 | 95 | 1007.1 |
| 20260901133519 | 30 | 0 | 0.0 | 0.0 | 0.00 | 0.35 | 0.00 | 95 | 1007.2 |
| 20260901133033 | 31 | 0 | 0.0 | 0.0 | 0.00 | 0.35 | 0.00 | 95 | 1007.1 |
| 20260901132520 | 31 | 0 | 0.0 | 0.0 | 0.00 | 0.35 | 0.00 | 95 | 1007.0 |
| 20260901132020 | 31 | 0 | 0.0 | 0.0 | 0.00 | 0.35 | 0.00 | 95 | 1007.2 |
| 20260901131531 | 31 | 0 | 0.0 | 0.0 | 0.00 | 0.35 | 0.00 | 95 | 1007.0 |
| 20260901131019 | 31 | 0 | 0.0 | 0.0 | 0.00 | 0.35 | 0.00 | 95 | 1007.0 |
| 20260901130517 | 31 | 0 | 0.0 | 0.0 | 0.00 | 0.35 | 0.00 | 95 | 1007.0 |
| 20260901130036 | 31 | 0 | 0.0 | 0.0 | 0.00 | 0.35 | 0.00 | 95 | 1007.1 |
| 20260901125516 | 31 | 0 | 0.0 | 0.0 | 0.00 | 0.40 | 0.00 | 95 | 1007.0 |
| 20260901125018 | 31 | 0 | 0.0 | 0.0 | 0.00 | 0.40 | 0.00 | 95 | 1007.0 |
| 20260901124536 | 31 | 0 | 0.0 | 0.0 | 0.00 | 0.40 | 0.00 | 95 | 1007.0 |
| 20260901124015 | 31 | 0 | 0.0 | 0.0 | 0.00 | 0.40 | 0.00 | 95 | 1006.9 |
| 20260901123514 | 31 | 0 | 0.0 | 2.0 | 0.00 | 0.40 | 0.00 | 95 | 1006.7 |
| 20260901123039 | 31 | 0 | 0.0 | 2.0 | 0.00 | 0.40 | 0.00 | 95 | 1006.7 |
| 20260901122519 | 31 | 0 | 0.0 | 2.0 | 0.00 | 0.40 | 0.00 | 95 | 1006.8 |
| 20260901122018 | 31 | 0 | 0.0 | 0.0 | 0.00 | 0.40 | 0.00 | 95 | 1006.7 |
| 20260901121537 | 31 | 0 | 0.0 | 0.0 | 0.00 | 0.40 | 0.00 | 95 | 1006.6 |
| 20260901121018 | 31 | 0 | 0.0 | 0.0 | 0.00 | 0.40 | 0.00 | 95 | 1006.6 |
| 20260901120517 | 31 | 0 | 0.0 | 0.0 | 0.00 | 0.40 | 0.00 | 95 | 1006.5 |
| 20260901120037 | 32 | 0 | 0.0 | 0.0 | 0.00 | 0.40 | 0.00 | 95 | 1006.6 |
| 20260901115517 | 32 | 0 | 0.0 | 0.0 | 0.00 | 0.40 | 0.00 | 95 | 1006.7 |
| 20260901115020 | 32 | 0 | 0.0 | 0.0 | 0.00 | 0.40 | 0.00 | 95 | 1006.6 |
| 20260901114550 | 32 | 0 | 0.0 | 0.0 | 0.00 | 0.40 | 0.00 | 95 | 1006.7 |
| 20260901114015 | 32 | 0 | 0.0 | 0.0 | 0.00 | 0.40 | 0.00 | 95 | 1006.6 |
| 20260901113519 | 32 | 0 | 0.0 | 0.0 | 0.00 | 0.40 | 0.00 | 95 | 1006.5 |
| 20260901113036 | 32 | 0 | 0.0 | 0.0 | 0.00 | 0.40 | 0.00 | 95 | 1006.6 |
| 20260901112522 | 32 | 0 | 0.0 | 0.0 | 0.00 | 0.40 | 0.00 | 95 | 1006.5 |
| 20260901112020 | 32 | 0 | 0.0 | 0.0 | 0.00 | 0.40 | 0.00 | 95 | 1006.5 |
| 20260901111533 | 32 | 0 | 0.0 | 0.0 | 0.00 | 0.40 | 0.00 | 95 | 1006.4 |
| 20260901111016 | 32 | 0 | 0.0 | 0.0 | 0.00 | 0.40 | 0.00 | 95 | 1006.4 |
| 20260901110517 | 33 | 0 | 0.0 | 0.0 | 0.00 | 0.40 | 0.00 | 95 | 1006.3 |
| 20260901110034 | 33 | 0 | 0.0 | 0.0 | 0.00 | 0.40 | 0.00 | 95 | 1006.1 |
| 20260901105518 | 33 | 0 | 0.0 | 0.0 | 0.00 | 0.40 | 0.00 | 95 | 1006.2 |
| 20260901105017 | 33 | 0 | 0.0 | 0.0 | 0.00 | 0.40 | 0.00 | 95 | 1006.2 |
| 20260901104535 | 33 | 0 | 0.0 | 0.0 | 0.00 | 0.40 | 0.00 | 95 | 1006.2 |
| 20260901104023 | 33 | 0 | 0.0 | 0.0 | 0.00 | 0.40 | 0.00 | 95 | 1006.2 |
| 20260901103521 | 33 | 0 | 0.0 | 0.0 | 0.00 | 0.40 | 0.00 | 95 | 1006.3 |
| 20260901103031 | 33 | 0 | 0.0 | 0.0 | 0.00 | 0.40 | 0.00 | 95 | 1006.3 |
| 20260901102523 | 34 | 0 | 0.0 | 0.0 | 0.00 | 0.40 | 0.00 | 95 | 1006.4 |
| 20260901102020 | 34 | 0 | 0.0 | 0.0 | 0.00 | 0.40 | 0.00 | 95 | 1006.2 |
| 20260901101531 | 34 | 0 | 0.0 | 0.0 | 0.00 | 0.40 | 0.00 | 95 | 1006.0 |
| 20260901101015 | 34 | 0 | 0.0 | 0.0 | 0.00 | 0.40 | 0.00 | 95 | 1005.9 |
| 20260901100515 | 34 | 0 | 0.0 | 0.0 | 0.00 | 0.40 | 0.00 | 95 | 1006.2 |
| 20260901100039 | 34 | 0 | 0.0 | 0.0 | 0.00 | 0.40 | 0.00 | 95 | 1006.0 |
| 20260901095520 | 34 | 0 | 0.0 | 0.0 | 0.00 | 0.40 | 0.00 | 95 | 1006.1 |
| 20260901095022 | 35 | 0 | 0.0 | 0.0 | 0.00 | 0.40 | 0.00 | 95 | 1006.0 |
| 20260901094532 | 35 | 0 | 0.0 | 0.0 | 0.00 | 0.40 | 0.00 | 95 | 1006.1 |
| 20260901094016 | 35 | 0 | 0.0 | 1.0 | 0.00 | 0.40 | 0.00 | 95 | 1006.2 |
| 20260901093518 | 35 | 0 | 0.0 | 1.0 | 0.00 | 0.40 | 0.00 | 95 | 1006.2 |
| 20260901093035 | 35 | 0 | 0.0 | 0.0 | 0.00 | 0.40 | 0.00 | 95 | 1006.1 |
| 20260901092515 | 35 | 0 | 0.0 | 0.0 | 0.00 | 0.40 | 0.00 | 95 | 1006.2 |
| 20260901092022 | 35 | 0 | 0.0 | 0.0 | 0.00 | 0.40 | 0.00 | 95 | 1006.1 |
| 20260901091539 | 35 | 0 | 0.0 | 0.0 | 0.00 | 0.40 | 0.00 | 95 | 1006.1 |
| 20260901091019 | 36 | 0 | 0.0 | 0.0 | 0.00 | 0.40 | 0.00 | 95 | 1006.1 |
| 20260901090516 | 36 | 0 | 0.0 | 0.0 | 0.00 | 0.40 | 0.00 | 95 | 1006.1 |
| 20260901090035 | 36 | 0 | 0.0 | 0.0 | 0.00 | 0.40 | 0.00 | 95 | 1005.9 |
| 20260901085521 | 36 | 0 | 0.0 | 0.0 | 0.00 | 0.40 | 0.00 | 95 | 1005.8 |
| 20260901085019 | 36 | 0 | 0.0 | 0.0 | 0.00 | 0.40 | 0.00 | 95 | 1005.9 |
| 20260901084533 | 36 | 0 | 0.0 | 0.0 | 0.00 | 0.40 | 0.00 | 95 | 1005.8 |
| 20260901084022 | 36 | 0 | 0.0 | 0.0 | 0.00 | 0.40 | 0.00 | 95 | 1005.8 |
| 20260901083518 | 36 | 0 | 0.0 | 0.0 | 0.00 | 0.40 | 0.00 | 94 | 1005.8 |
| 20260901083036 | 37 | 0 | 0.0 | 0.0 | 0.00 | 0.40 | 0.00 | 95 | 1005.7 |
| 20260901082518 | 37 | 0 | 0.0 | 0.0 | 0.00 | 0.40 | 0.00 | 95 | 1005.7 |
| 20260901082015 | 37 | 0 | 0.0 | 0.0 | 0.00 | 0.40 | 0.00 | 95 | 1005.6 |
| 20260901081539 | 37 | 0 | 0.0 | 0.0 | 0.00 | 0.40 | 0.00 | 94 | 1005.6 |
| 20260901081020 | 37 | 0 | 0.0 | 0.0 | 0.00 | 0.40 | 0.00 | 94 | 1005.5 |
| 20260901080524 | 37 | 0 | 0.0 | 0.0 | 0.00 | 0.40 | 0.00 | 94 | 1005.5 |
| 20260901080036 | 37 | 0 | 0.0 | 0.0 | 0.00 | 0.40 | 0.00 | 94 | 1005.5 |
| 20260901075520 | 38 | 0 | 0.0 | 0.0 | 0.00 | 0.40 | 0.40 | 94 | 1005.5 |
| 20260901075020 | 38 | 0 | 0.0 | 0.0 | 0.00 | 0.40 | 0.40 | 94 | 1005.5 |
| 20260901074533 | 38 | 0 | 0.0 | 0.0 | 0.00 | 0.40 | 0.40 | 94 | 1005.6 |
| 20260901074018 | 38 | 0 | 0.0 | 0.0 | 0.00 | 0.40 | 0.40 | 94 | 1005.6 |
| 20260901073518 | 38 | 0 | 0.0 | 0.0 | 0.00 | 0.40 | 0.40 | 94 | 1005.6 |
| 20260901073035 | 38 | 0 | 0.0 | 0.0 | 0.00 | 0.40 | 0.40 | 94 | 1005.5 |
| 20260901072518 | 39 | 0 | 0.0 | 0.0 | 0.00 | 0.40 | 0.40 | 94 | 1005.6 |
| 20260901072016 | 39 | 0 | 0.0 | 0.0 | 0.00 | 0.40 | 0.40 | 94 | 1005.4 |
| 20260901071536 | 39 | 0 | 0.0 | 0.0 | 0.00 | 0.40 | 0.40 | 94 | 1005.4 |
| 20260901071020 | 39 | 0 | 0.0 | 0.0 | 0.00 | 0.40 | 0.40 | 94 | 1005.5 |
| 20260901070520 | 40 | 0 | 0.0 | 0.0 | 0.00 | 0.40 | 0.40 | 94 | 1005.6 |
| 20260901070037 | 40 | 0 | 0.0 | 0.0 | 0.00 | 0.40 | 0.40 | 94 | 1005.5 |
| 20260901065518 | 40 | 0 | 0.0 | 0.0 | 0.00 | 0.42 | 0.40 | 94 | 1005.5 |
| 20260901065017 | 40 | 0 | 0.0 | 0.0 | 0.00 | 0.42 | 0.40 | 94 | 1005.4 |
| 20260901064540 | 41 | 0 | 0.0 | 0.0 | 0.00 | 0.42 | 0.40 | 94 | 1005.3 |
| 20260901064018 | 41 | 0 | 0.0 | 0.0 | 0.00 | 0.42 | 0.40 | 94 | 1005.3 |
| 20260901063518 | 41 | 0 | 0.0 | 0.0 | 0.00 | 0.42 | 0.40 | 94 | 1005.2 |
| 20260901063039 | 41 | 0 | 0.0 | 0.0 | 0.00 | 0.42 | 0.40 | 94 | 1005.0 |
| 20260901062528 | 41 | 0 | 0.0 | 0.0 | 0.00 | 0.42 | 0.40 | 93 | 1005.0 |
| 20260901062021 | 42 | 0 | 0.0 | 0.0 | 0.00 | 0.42 | 0.40 | 93 | 1005.0 |
| 20260901061533 | 42 | 0 | 0.0 | 0.0 | 0.00 | 0.42 | 0.40 | 93 | 1004.8 |
| 20260901061020 | 42 | 0 | 0.0 | 0.0 | 0.00 | 0.42 | 0.40 | 93 | 1004.7 |
| 20260901060521 | 42 | 0 | 0.0 | 0.0 | 0.00 | 0.42 | 0.40 | 93 | 1004.6 |
| 20260901060043 | 43 | 0 | 0.0 | 0.0 | 0.00 | 0.42 | 0.40 | 93 | 1004.5 |
| 20260901055516 | 43 | 0 | 0.0 | 0.0 | 0.00 | 0.43 | 0.40 | 93 | 1004.5 |
| 20260901055017 | 43 | 0 | 0.0 | 0.0 | 0.00 | 0.43 | 0.40 | 93 | 1004.5 |
| 20260901054537 | 44 | 0 | 0.0 | 0.0 | 0.00 | 0.43 | 0.40 | 92 | 1004.3 |
| 20260901054016 | 44 | 0 | 0.0 | 0.0 | 0.00 | 0.43 | 0.40 | 92 | 1004.4 |
| 20260901053518 | 44 | 0 | 0.0 | 0.0 | 0.00 | 0.43 | 0.40 | 92 | 1004.4 |
| 20260901053035 | 44 | 0 | 0.0 | 0.0 | 0.00 | 0.43 | 0.40 | 92 | 1004.4 |
| 20260901052517 | 45 | 0 | 0.0 | 0.0 | 0.00 | 0.43 | 0.40 | 92 | 1004.2 |
| 20260901052023 | 45 | 0 | 0.0 | 0.0 | 0.00 | 0.43 | 0.40 | 92 | 1004.1 |
| 20260901051531 | 45 | 0 | 0.0 | 0.0 | 0.00 | 0.43 | 0.40 | 91 | 1004.2 |
| 20260901051020 | 46 | 0 | 0.0 | 0.0 | 0.00 | 0.43 | 0.40 | 91 | 1004.2 |
| 20260901050517 | 46 | 0 | 0.0 | 0.0 | 0.00 | 0.43 | 0.40 | 91 | 1004.2 |
| 20260901050036 | 46 | 0 | 0.0 | 0.0 | 0.00 | 0.43 | 0.40 | 90 | 1004.1 |
| 20260901045516 | 47 | 0 | 0.0 | 0.0 | 0.00 | 0.43 | 0.40 | 90 | 1004.0 |
| 20260901045016 | 47 | 0 | 0.0 | 0.0 | 0.00 | 0.43 | 0.40 | 90 | 1004.0 |
| 20260901044537 | 48 | 0 | 0.0 | 0.0 | 0.00 | 0.43 | 0.40 | 89 | 1003.9 |
| 20260901044017 | 48 | 0 | 0.0 | 0.0 | 0.00 | 0.43 | 0.40 | 89 | 1003.9 |
| 20260901043518 | 48 | 0 | 0.0 | 0.0 | 0.00 | 0.43 | 0.40 | 87 | 1003.8 |
| 20260901043035 | 49 | 0 | 0.0 | 0.0 | 0.00 | 0.43 | 0.40 | 87 | 1003.8 |
| 20260901042517 | 49 | 0 | 0.0 | 0.0 | 0.00 | 0.43 | 0.40 | 87 | 1003.9 |
| 20260901042015 | 49 | 0 | 0.0 | 0.0 | 0.00 | 0.43 | 0.40 | 86 | 1003.9 |
| 20260901041539 | 49 | 0 | 0.0 | 0.0 | 0.00 | 0.43 | 0.40 | 86 | 1003.8 |
| 20260901041018 | 49 | 0 | 0.0 | 0.0 | 0.00 | 0.43 | 0.40 | 84 | 1003.6 |
| 20260901040518 | 50 | 0 | 0.0 | 0.0 | 0.00 | 0.43 | 0.40 | 83 | 1003.7 |
| 20260901040038 | 50 | 0 | 0.0 | 0.0 | 0.00 | 0.43 | 0.40 | 83 | 1003.7 |
| 20260901035518 | 50 | 0 | 0.0 | 0.0 | 0.00 | 0.43 | 0.40 | 82 | 1003.7 |
| 20260901035017 | 50 | 0 | 0.0 | 0.0 | 0.00 | 0.43 | 0.40 | 81 | 1003.6 |
| 20260901034533 | 50 | 0 | 0.0 | 0.0 | 0.00 | 0.43 | 0.40 | 81 | 1003.6 |
| 20260901034015 | 50 | 0 | 0.0 | 0.0 | 0.00 | 0.43 | 0.40 | 80 | 1003.7 |
| 20260901033516 | 50 | 0 | 0.0 | 0.0 | 0.00 | 0.43 | 0.40 | 80 | 1003.7 |
| 20260901033037 | 50 | 0 | 0.0 | 0.0 | 0.00 | 0.43 | 0.40 | 80 | 1003.5 |
| 20260901032517 | 51 | 0 | 0.0 | 0.0 | 0.00 | 0.43 | 0.40 | 79 | 1003.5 |
| 20260901032016 | 51 | 0 | 0.0 | 0.0 | 0.00 | 0.43 | 0.40 | 77 | 1003.5 |
| 20260901031535 | 51 | 0 | 0.0 | 0.0 | 0.00 | 0.43 | 0.40 | 77 | 1003.5 |
| 20260901031016 | 52 | 0 | 0.0 | 0.0 | 0.00 | 0.43 | 0.40 | 76 | 1003.4 |
| 20260901030518 | 52 | 0 | 0.0 | 0.0 | 0.00 | 0.43 | 0.40 | 75 | 1003.3 |
| 20260901030035 | 52 | 0 | 0.0 | 1.0 | 0.00 | 0.43 | 0.40 | 75 | 1003.2 |
| 20260901025519 | 53 | 0 | 0.0 | 1.0 | 0.00 | 0.43 | 0.40 | 72 | 1003.1 |
| 20260901025022 | 53 | 270 | 0.0 | 1.0 | 0.00 | 0.43 | 0.40 | 70 | 1003.2 |
| 20260901024535 | 54 | 0 | 0.0 | 1.0 | 0.00 | 0.43 | 0.40 | 71 | 1003.1 |
| 20260901024023 | 54 | 0 | 0.0 | 1.0 | 0.00 | 0.43 | 0.40 | 70 | 1003.1 |
| 20260901023519 | 55 | 123 | 0.0 | 1.0 | 0.00 | 0.43 | 0.40 | 69 | 1003.0 |
| 20260901023036 | 55 | 0 | 0.0 | 1.0 | 0.00 | 0.43 | 0.40 | 68 | 1002.9 |
| 20260901022521 | 55 | 124 | 0.0 | 1.0 | 0.00 | 0.43 | 0.40 | 67 | 1002.9 |
| 20260901022020 | 55 | 0 | 0.0 | 1.0 | 0.00 | 0.43 | 0.40 | 72 | 1002.7 |
| 20260901021538 | 55 | 0 | 0.0 | 2.0 | 0.00 | 0.43 | 0.40 | 68 | 1002.8 |
| 20260901021017 | 56 | 0 | 0.0 | 2.0 | 0.00 | 0.43 | 0.40 | 67 | 1002.8 |
| 20260901020518 | 55 | 290 | 0.0 | 1.0 | 0.00 | 0.43 | 0.40 | 67 | 1002.8 |
| 20260901020038 | 54 | 105 | 0.0 | 1.0 | 0.00 | 0.43 | 0.40 | 71 | 1002.7 |
| 20260901015521 | 55 | 21 | 0.0 | 1.0 | 0.00 | 0.43 | 0.40 | 70 | 1002.5 |
| 20260901015020 | 55 | 21 | 0.0 | 1.0 | 0.00 | 0.43 | 0.40 | 68 | 1002.6 |
| 20260901014533 | 55 | 0 | 0.0 | 1.0 | 0.00 | 0.43 | 0.40 | 70 | 1002.6 |
| 20260901014021 | 54 | 250 | 0.0 | 2.0 | 0.00 | 0.43 | 0.40 | 72 | 1002.6 |
| 20260901013516 | 54 | 0 | 0.0 | 2.0 | 0.00 | 0.43 | 0.40 | 72 | 1002.5 |
| 20260901013052 | 54 | 0 | 0.0 | 1.0 | 0.00 | 0.43 | 0.40 | 72 | 1002.5 |
| 20260901012515 | 53 | 42 | 0.0 | 2.0 | 0.00 | 0.43 | 0.40 | 75 | 1002.6 |
| 20260901012017 | 53 | 0 | 0.0 | 2.0 | 0.00 | 0.43 | 0.40 | 76 | 1002.6 |
| 20260901011539 | 52 | 0 | 0.0 | 2.0 | 0.00 | 0.43 | 0.40 | 75 | 1002.5 |
| 20260901011018 | 52 | 0 | 0.0 | 2.0 | 0.00 | 0.43 | 0.40 | 75 | 1002.5 |
| 20260901010520 | 52 | 153 | 0.0 | 2.0 | 0.00 | 0.43 | 0.40 | 77 | 1002.5 |
| 20260901010035 | 52 | 0 | 0.0 | 0.0 | 0.00 | 0.43 | 0.40 | 81 | 1002.4 |
| 20260901005516 | 51 | 0 | 0.0 | 1.0 | 0.00 | 0.43 | 0.40 | 76 | 1002.5 |
| 20260901005021 | 52 | 0 | 0.0 | 1.0 | 0.00 | 0.43 | 0.40 | 75 | 1002.4 |
| 20260901004536 | 53 | 0 | 0.0 | 2.0 | 0.00 | 0.43 | 0.40 | 74 | 1002.3 |
| 20260901004019 | 54 | 0 | 0.0 | 2.0 | 0.00 | 0.43 | 0.40 | 74 | 1002.3 |
| 20260901003519 | 54 | 80 | 1.0 | 3.0 | 0.00 | 0.43 | 0.40 | 71 | 1002.2 |
| 20260901003036 | 55 | 132 | 1.0 | 3.0 | 0.00 | 0.43 | 0.40 | 74 | 1002.3 |
| 20260901002516 | 54 | 0 | 0.0 | 2.0 | 0.00 | 0.43 | 0.40 | 73 | 1002.1 |
| 20260901002016 | 54 | 148 | 1.0 | 2.0 | 0.00 | 0.43 | 0.40 | 73 | 1002.1 |
| 20260901001537 | 53 | 318 | 0.0 | 2.0 | 0.00 | 0.43 | 0.40 | 75 | 1002.2 |
| 20260901001018 | 53 | 153 | 1.0 | 2.0 | 0.00 | 0.43 | 0.40 | 76 | 1002.1 |
| 20260901000515 | 53 | 0 | 0.0 | 2.0 | 0.00 | 0.43 | 0.40 | 77 | 1002.1 |
| 20260901000036 | 53 | 98 | 0.0 | 2.0 | 0.00 | 0.43 | 0.40 | 76 | 1002.1 |
| 20260831235521 | 52 | 101 | 0.0 | 2.0 | 0.00 | 0.43 | 0.40 | 78 | 1002.0 |
| 20260831235020 | 52 | 128 | 0.0 | 4.0 | 0.00 | 0.43 | 0.40 | 78 | 1002.0 |
| 20260831234539 | 52 | 0 | 1.0 | 4.0 | 0.00 | 0.43 | 0.40 | 77 | 1002.0 |
| 20260831234016 | 51 | 129 | 0.0 | 3.0 | 0.00 | 0.43 | 0.40 | 79 | 1001.9 |
| 20260831233523 | 51 | 91 | 0.0 | 4.0 | 0.00 | 0.43 | 0.40 | 79 | 1002.0 |
| 20260831233033 | 51 | 143 | 1.0 | 4.0 | 0.00 | 0.43 | 0.40 | 78 | 1002.0 |
| 20260831232517 | 51 | 151 | 1.0 | 4.0 | 0.00 | 0.43 | 0.40 | 77 | 1002.1 |
| 20260831232017 | 51 | 152 | 1.0 | 4.0 | 0.00 | 0.43 | 0.40 | 76 | 1002.0 |
| 20260831231536 | 50 | 148 | 1.0 | 3.0 | 0.00 | 0.43 | 0.40 | 79 | 1002.0 |
| 20260831231018 | 50 | 132 | 0.0 | 4.0 | 0.00 | 0.43 | 0.40 | 78 | 1002.1 |
| 20260831230524 | 50 | 254 | 1.0 | 5.0 | 0.00 | 0.43 | 0.40 | 77 | 1001.9 |
| 20260831230040 | 50 | 0 | 1.0 | 5.0 | 0.00 | 0.43 | 0.40 | 78 | 1002.0 |
| 20260831225521 | 50 | 184 | 2.0 | 3.0 | 0.00 | 0.43 | 0.40 | 79 | 1001.9 |
| 20260831225018 | 49 | 0 | 0.0 | 5.0 | 0.00 | 0.43 | 0.40 | 81 | 1001.9 |
| 20260831224536 | 49 | 0 | 0.0 | 5.0 | 0.00 | 0.43 | 0.40 | 84 | 1001.9 |
| 20260831224018 | 47 | 0 | 0.0 | 1.0 | 0.00 | 0.43 | 0.40 | 84 | 1001.8 |
| 20260831223522 | 47 | 61 | 0.0 | 2.0 | 0.00 | 0.43 | 0.40 | 85 | 1001.9 |
| 20260831223036 | 48 | 0 | 0.0 | 4.0 | 0.00 | 0.43 | 0.40 | 84 | 1001.9 |
| 20260831222519 | 48 | 21 | 1.0 | 4.0 | 0.00 | 0.43 | 0.40 | 84 | 1001.9 |
| 20260831222022 | 47 | 0 | 0.0 | 2.0 | 0.00 | 0.43 | 0.40 | 85 | 1001.9 |
| 20260831221532 | 47 | 146 | 0.0 | 3.0 | 0.00 | 0.43 | 0.40 | 84 | 1002.0 |
| 20260831221018 | 46 | 161 | 1.0 | 3.0 | 0.00 | 0.43 | 0.40 | 84 | 1002.0 |
| 20260831220519 | 46 | 0 | 0.0 | 0.0 | 0.00 | 0.43 | 0.40 | 85 | 1002.1 |
| 20260831220038 | 46 | 0 | 0.0 | 0.0 | 0.00 | 0.43 | 0.40 | 86 | 1002.2 |
| 20260831215518 | 45 | 0 | 0.0 | 0.0 | 0.00 | 0.43 | 0.40 | 88 | 1002.1 |
| 20260831215020 | 45 | 0 | 0.0 | 1.0 | 0.00 | 0.43 | 0.40 | 89 | 1002.1 |
| 20260831214532 | 45 | 0 | 0.0 | 1.0 | 0.00 | 0.43 | 0.40 | 88 | 1002.1 |
| 20260831214021 | 45 | 288 | 0.0 | 0.0 | 0.00 | 0.43 | 0.40 | 88 | 1002.0 |
| 20260831213525 | 46 | 0 | 0.0 | 1.0 | 0.00 | 0.43 | 0.40 | 89 | 1002.0 |
| 20260831213034 | 45 | 0 | 0.0 | 1.0 | 0.00 | 0.43 | 0.40 | 89 | 1002.1 |
| 20260831212520 | 45 | 34 | 0.0 | 2.0 | 0.00 | 0.43 | 0.40 | 90 | 1001.9 |
| 20260831212020 | 45 | 0 | 0.0 | 3.0 | 0.00 | 0.43 | 0.40 | 91 | 1001.8 |
| 20260831211535 | 45 | 360 | 0.0 | 3.0 | 0.00 | 0.43 | 0.40 | 90 | 1002.0 |
| 20260831211016 | 45 | 330 | 0.0 | 1.0 | 0.00 | 0.43 | 0.40 | 93 | 1001.9 |
| 20260831210517 | 44 | 0 | 0.0 | 1.0 | 0.00 | 0.43 | 0.40 | 94 | 1002.0 |
| 20260831210035 | 44 | 0 | 0.0 | 1.0 | 0.00 | 0.43 | 0.40 | 93 | 1001.8 |
| 20260831205520 | 44 | 0 | 0.0 | 1.0 | 0.00 | 0.43 | 0.40 | 94 | 1001.9 |
| 20260831205021 | 43 | 0 | 0.0 | 1.0 | 0.00 | 0.43 | 0.40 | 93 | 1001.8 |
| 20260831204540 | 43 | 38 | 0.0 | 1.0 | 0.00 | 0.43 | 0.40 | 93 | 1001.7 |
| 20260831204020 | 44 | 0 | 0.0 | 1.0 | 0.00 | 0.43 | 0.40 | 93 | 1001.8 |
| 20260831203520 | 43 | 0 | 0.0 | 4.0 | 0.00 | 0.43 | 0.40 | 92 | 1001.7 |
| 20260831203042 | 44 | 0 | 0.0 | 4.0 | 0.00 | 0.43 | 0.40 | 91 | 1001.5 |
| 20260831202518 | 44 | 146 | 0.0 | 4.0 | 0.00 | 0.43 | 0.40 | 92 | 1001.4 |
| 20260831202019 | 44 | 244 | 1.0 | 4.0 | 0.00 | 0.43 | 0.40 | 93 | 1001.6 |
| 20260831201534 | 44 | 0 | 0.0 | 6.0 | 0.00 | 0.43 | 0.40 | 93 | 1001.5 |